CAPE
0 0 0 0 0 0 0 0 0 0 0 1 16 0 0 4 180 135 321 256 335 266 278 336 373 358 97 88 189 115 95 16 0 0 0 0 0 0 0 61 15 1 44 67
0 0 0 0 0 0 0 0 0 1 4 49 14 0 0 0 0 0 47 510 470 323 289 209 122 216 36 83 48 278 394 487 327 74 1 4 0 0 0 0 0 0 0 0
0 0 0 0 0 0 0 1 4 0 0 3 0 0 0 0 0 0 0 261 240 314 360 266 224 265 205 207 265 301 194 227 214 221 177 87 10 0 0 0 1 0 0 0
0 0 0 0 0 4 8 37 42 40 48 0 0 0 0 0 0 0 16 113 236 152 163 155 155 153 192 225 236 239 289 185 49 26 14 4 3 0 10 3 0 0 0 0
0 0 0 16 35 43 6 0 6 39 0 0 0 0 0 0 8 2 17 68 130 105 38 42 33 24 26 48 70 101 119 116 132 134 87 9 0 0 0 1 0 0 1 7
0 19 22 1 17 115 101 0 95 5 1 0 0 0 0 0 16 6 40 61 14 0 0 0 0 0 0 0 0 0 0 21 55 101 113 119 59 0 0 0 1 7 76 76
44 35 13 22 157 317 3 0 107 66 0 0 0 0 0 36 32 66 37 53 5 0 0 0 0 0 0 0 0 0 0 0 0 0 13 32 86 58 37 47 32 24 39 80
11 15 0 194 383 110 36 71 216 225 49 0 0 13 16 23 42 51 41 31 3 3 0 0 0 0 0 0 0 0 0 0 0 0 0 0 7 20 54 57 32 39 44 64
18 39 39 159 329 201 101 33 19 215 126 10 0 49 35 26 46 42 69 78 70 7 2 0 0 0 0 0 0 0 0 0 0 0 0 0 0 0 1 3 17 14 14 7
15 9 56 123 312 242 8 107 264 151 83 85 39 46 25 65 50 65 54 36 30 26 5 0 0 0 0 0 0 0 0 0 0 0 0 0 0 0 0 0 0 0 0 0
37 11 4 50 3 245 194 353 266 62 123 56 26 46 73 68 41 44 44 15 13 7 4 2 0 0 0 0 0 0 0 0 0 0 0 0 0 0 0 0 0 0 0 0
0 0 0 97 252 350 253 15 155 51 0 42 109 64 89 59 61 53 40 13 5 0 0 0 0 0 0 0 0 0 0 0 0 0 0 0 0 0 0 0 0 0 0 0
0 0 4 72 463 292 19 0 35 18 16 65 177 133 120 83 59 45 16 6 2 1 3 0 0 0 0 0 0 0 0 0 0 0 0 0 0 0 0 0 0 0 0 0
0 0 73 368 319 264 28 114 25 13 13 37 135 87 109 119 81 43 22 17 23 26 0 0 0 0 0 0 0 0 0 0 0 0 0 0 0 0 0 0 0 0 0 0
233 160 282 456 230 145 101 83 43 60 79 112 138 128 103 39 31 28 37 21 24 8 0 0 0 0 0 0 0 0 0 0 0 0 0 0 0 0 0 0 0 0 5 2
159 181 273 358 237 127 139 85 59 30 11 70 70 109 149 77 25 31 47 31 24 10 4 0 0 0 0 0 0 0 0 0 0 0 0 0 0 0 0 7 30 36 30 24
270 254 211 244 185 15 11 42 64 68 20 54 56 38 75 53 12 18 19 16 21 23 9 2 0 0 0 0 0 0 0 0 0 0 0 0 0 0 0 0 0 0 0 0
136 150 64 0 4 0 0 3 8 46 16 25 59 68 33 36 18 28 33 36 18 9 3 0 0 0 0 0 0 0 0 0 0 0 0 0 0 0 0 0 0 0 0 0
36 122 49 9 3 9 0 3 0 1 30 51 100 100 61 60 56 47 50 19 3 0 3 3 0 0 0 0 0 0 0 0 0 0 0 0 0 0 0 4 4 0 0 0
0 0 11 15 14 0 13 47 19 28 25 74 13 23 35 27 22 4 1 0 0 0 0 9 0 0 0 0 0 0 0 0 0 0 0 0 0 0 0 0 7 9 0 0
0 10 7 51 128 67 12 56 19 39 30 1 5 11 26 8 10 8 2 0 0 0 2 16 0 0 0 0 0 0 0 0 0 0 0 0 0 0 0 0 0 4 31 11
23 47 16 34 58 45 54 11 4 21 34 5 0 1 2 2 17 20 9 8 13 30 24 5 0 0 0 0 0 0 0 0 0 0 0 0 0 0 0 0 0 0 15 36
0 0 6 16 35 37 26 11 4 9 9 15 19 29 29 45 51 54 22 17 20 8 4 0 0 2 6 1 0 0 0 0 0 0 0 0 0 0 0 0 0 0 0 37
0 0 0 0 6 9 3 3 11 0 12 28 38 42 34 21 16 5 8 13 4 3 0 1 0 0 0 0 0 0 0 0 0 0 0 0 0 0 0 0 0 0 0 4
0 0 0 0 5 3 3 3 0 0 5 8 1 9 19 7 6 0 0 0 0 0 0 0 0 0 0 0 0 0 0 0 0 0 0 0 0 8 8 0 0 0 3 10
0 1 3 0 0 0 3 0 0 0 0 0 5 2 1 0 0 0 0 0 0 0 0 0 0 0 0 0 0 0 0 0 0 0 0 0 0 1 8 3 0 0 0 0
5 1 3 2 5 1 4 7 7 5 0 4 2 0 0 0 0 0 0 0 0 0 0 0 0 0 0 0 0 0 1 0 0 0 0 0 0 1 2 0 0 0 0 1
CIN
-0 -0 -0 -0 -0 -0 -0 -0 -0 -0 -0 -49 -110 -0 -0 -52 -108 -101 -49 -118 -114 -127 -109 -75 -4 -1 -79 -92 -135 -156 -175 -176 -0 -0 -0 -0 -0 -0 -0 -58 -81 -15 -149 -55
-0 -0 -0 -0 -0 -0 -0 -0 -0 -22 -52 -91 -128 -0 -0 -0 -0 -0 -57 -7 -13 -56 -41 -75 -64 -53 -152 -72 -140 -127 -100 -93 -254 -390 -90 -402 -0 -0 -0 -0 -43 -0 -0 -0
-0 -0 -0 -0 -0 -0 -0 -22 -86 -0 -0 -64 -0 -0 -0 -0 -0 -0 -0 -10 -10 -19 -3 -35 -21 -55 -110 -107 -92 -158 -280 -225 -266 -339 -319 -286 -416 -0 -0 -0 -10 -0 -0 -0
-0 -0 -0 -0 -9 -59 -85 -95 -107 -105 -86 -0 -0 -0 -0 -0 -0 -0 -12 -3 -4 -13 -22 -34 -18 -25 -57 -96 -143 -137 -130 -195 -276 -335 -321 -142 -134 -0 -260 -195 -0 -0 -0 -0
-0 -0 -0 -22 -62 -61 -34 -0 -32 -108 -0 -0 -0 -0 -0 -0 -1 -11 -12 -4 -1 -2 -78 -113 -122 -97 -137 -126 -144 -143 -117 -88 -53 -94 -178 -141 -0 -0 -1 -5 -14 -0 -30 -48
-0 -20 -4 -4 -85 -58 -81 -0 -81 -47 -86 -0 -0 -0 -0 -4 -15 -20 -8 -0 -23 -0 -0 -0 -0 -0 -0 -0 -0 -0 -0 -247 -228 -146 -147 -135 -201 -1 -0 -1 -26 -34 -53 -38
-30 -15 -46 -81 -88 -60 -13 -0 -65 -69 -0 -0 -0 -17 -10 -19 -6 -3 -8 -12 -30 -0 -0 -0 -0 -0 -0 -0 -0 -0 -0 -0 -0 -0 -231 -254 -145 -182 -153 -120 -112 -75 -73 -64
-67 -26 -5 -85 -49 -33 -62 -114 -84 -60 -86 -0 -0 -77 -56 -14 -36 -4 -14 -18 -58 -72 -0 -0 -0 -0 -0 -0 -0 -0 -0 -0 -0 -0 -0 -0 -174 -211 -130 -101 -96 -73 -57 -72
-43 -25 -79 -106 -69 -77 -104 -98 -104 -71 -63 -121 -0 -58 -69 -31 -16 -11 -15 -23 -23 -41 -63 -0 -0 -0 -0 -0 -0 -0 -0 -0 -0 -0 -0 -0 -0 -0 -25 -15 -165 -131 -120 -86
-78 -40 -69 -111 -107 -101 -96 -100 -87 -114 -108 -73 -53 -61 -56 -40 -29 -16 -25 -21 -35 -45 -61 -0 -0 -0 -0 -0 -0 -0 -0 -0 -0 -0 -0 -0 -0 -0 -0 -0 -0 -0 -0 -0
-80 -71 -114 -115 -10 -72 -89 -83 -82 -68 -77 -73 -89 -57 -50 -32 -25 -22 -22 -40 -23 -21 -24 -19 -0 -0 -0 -0 -0 -0 -0 -0 -0 -0 -0 -0 -0 -0 -0 -0 -0 -0 -0 -0
-0 -0 -11 -32 -41 -74 -96 -176 -98 -92 -0 -82 -69 -60 -37 -34 -32 -29 -20 -36 -31 -0 -0 -0 -0 -0 -0 -0 -0 -0 -0 -0 -0 -0 -0 -0 -0 -0 -0 -0 -0 -0 -0 -0
-0 -0 -71 -67 -81 -130 -198 -0 -151 -91 -91 -80 -28 -30 -33 -28 -33 -29 -25 -25 -32 -8 -22 -0 -0 -0 -0 -0 -0 -0 -0 -0 -0 -0 -0 -0 -0 -0 -0 -0 -0 -0 -0 -0
-0 -7 -87 -96 -56 -141 -186 -153 -140 -114 -92 -60 -25 -36 -28 -29 -37 -20 -16 -28 -37 -27 -1 -0 -0 -0 -0 -0 -0 -0 -0 -0 -0 -0 -0 -0 -0 -0 -0 -0 -0 -0 -0 -0
-49 -119 -88 -131 -184 -176 -189 -166 -108 -55 -48 -31 -32 -24 -26 -30 -17 -15 -30 -37 -35 -34 -0 -0 -0 -0 -0 -0 -0 -0 -0 -0 -0 -0 -0 -0 -0 -0 -0 -0 -0 -0 -97 -19
-107 -128 -155 -119 -140 -155 -132 -131 -95 -68 -39 -42 -39 -35 -28 -33 -27 -22 -30 -37 -26 -22 -31 -0 -0 -0 -0 -0 -0 -0 -0 -0 -0 -0 -0 -0 -0 -0 -0 -24 -41 -44 -53 -63
-56 -61 -118 -115 -102 -152 -165 -168 -109 -78 -56 -49 -53 -58 -53 -48 -27 -19 -19 -39 -40 -35 -38 -30 -0 -0 -0 -0 -0 -0 -0 -0 -0 -0 -0 -0 -0 -0 -0 -0 -0 -0 -0 -0
-112 -137 -169 -0 -151 -0 -0 -171 -109 -73 -69 -82 -80 -56 -53 -94 -23 -28 -27 -33 -30 -27 -43 -0 -0 -0 -0 -0 -0 -0 -0 -0 -0 -0 -0 -0 -0 -0 -0 -0 -0 -0 -0 -0
-168 -128 -138 -166 -209 -189 -0 -82 -0 -72 -82 -56 -57 -27 -38 -69 -58 -32 -68 -31 -12 -0 -24 -26 -0 -0 -0 -0 -0 -0 -0 -0 -0 -0 -0 -0 -0 -0 -0 -55 -37 -0 -0 -0
-0 -0 -118 -129 -140 -13 -68 -83 -94 -52 -85 -85 -75 -31 -28 -23 -30 -43 -11 -0 -0 -0 -0 -45 -0 -0 -0 -0 -0 -0 -0 -0 -0 -0 -0 -0 -0 -0 -0 -0 -76 -65 -0 -0
-0 -94 -79 -80 -62 -47 -95 -77 -55 -58 -53 -7 -30 -17 -20 -43 -44 -31 -16 -0 -0 -0 -65 -61 -0 -0 -0 -0 -0 -0 -0 -0 -0 -0 -0 -0 -0 -0 -0 -0 -0 -70 -73 -81
-59 -70 -60 -63 -63 -60 -68 -91 -77 -70 -43 -38 -0 -13 -11 -10 -26 -30 -42 -46 -60 -65 -78 -85 -0 -0 -0 -0 -0 -0 -0 -0 -0 -0 -0 -0 -0 -0 -0 -0 -0 -0 -84 -77
-0 -0 -70 -80 -65 -86 -101 -80 -72 -69 -48 -36 -30 -36 -43 -50 -56 -30 -24 -67 -67 -62 -74 -0 -23 -43 -59 -50 -0 -0 -0 -0 -0 -0 -0 -0 -0 -0 -0 -0 -0 -0 -0 -75
-0 -0 -0 -9 -117 -66 -34 -75 -54 -5 -91 -90 -74 -69 -53 -41 -70 -144 -112 -90 -50 -79 -0 -75 -8 -2 -0 -0 -0 -0 -0 -0 -0 -0 -0 -0 -0 -0 -0 -0 -0 -0 -0 -98
-0 -0 -0 -0 -90 -104 -127 -120 -0 -7 -92 -87 -76 -114 -123 -148 -59 -0 -0 -0 -0 -0 -0 -0 -0 -0 -0 -0 -0 -0 -0 -0 -0 -0 -0 -0 -91 -126 -131 -28 -0 -0 -120 -85
-1 -21 -56 -9 -0 -0 -50 -2 -0 -0 -0 -0 -123 -142 -80 -0 -0 -0 -0 -0 -0 -0 -0 -0 -0 -0 -0 -0 -0 -0 -0 -0 -0 -0 -0 -0 -0 -30 -51 -67 -0 -0 -0 -0
-26 -29 -40 -62 -86 -43 -36 -29 -34 -21 -12 -65 -19 -0 -0 -0 -0 -0 -0 -0 -0 -0 -0 -0 -0 -0 -0 -0 -0 -0 -7 -0 -0 -0 -0 -0 -0 -24 -36 -0 -0 -0 -0 -0
Wind_Speed
26 27 32 30 29 31 27 26 28 29 29 29 29 27 30 33 32 30 28 29 31 30 30 29 24 21 17 19 15 1 6 8 7 7 6 7 6 6 2 11 10 23 24 28
32 33 31 30 31 27 25 25 28 29 33 24 25 24 30 33 33 33 31 26 23 25 26 24 21 19 16 14 14 12 15 16 19 16 11 6 5 4 7 21 34 33 21 31
37 32 31 33 27 24 24 24 26 31 27 28 31 29 26 30 30 31 31 26 18 20 21 19 14 14 14 13 11 10 12 13 14 15 14 14 11 11 11 29 35 9 33 27
33 28 32 26 22 22 26 24 20 24 27 28 29 28 23 25 31 28 23 22 18 18 17 17 13 11 11 11 11 12 12 13 15 16 17 14 10 7 10 31 34 36 33 30
25 25 27 25 23 23 26 28 19 21 25 26 26 28 27 23 26 18 18 18 14 15 14 14 12 12 12 12 13 13 14 14 15 14 15 17 19 19 15 17 21 21 23 24
20 25 26 21 25 23 23 32 17 18 23 24 26 30 31 33 28 17 12 12 12 13 13 13 12 12 13 13 13 13 14 15 17 17 17 17 13 12 12 12 11 14 15 16
21 24 25 23 19 17 28 24 24 18 22 16 20 20 23 25 21 13 13 13 15 12 11 11 12 12 12 12 13 15 16 17 18 18 18 18 17 14 13 12 12 13 14 15
22 24 26 18 19 22 19 23 25 25 18 13 14 17 13 9 21 17 17 15 14 9 8 10 12 13 13 14 15 17 17 17 18 19 20 20 18 17 14 13 12 14 14 16
17 22 23 23 19 21 19 20 23 26 21 17 12 17 14 14 16 15 17 18 11 10 10 12 14 15 16 17 17 18 18 19 18 19 20 19 19 18 16 16 15 14 16 15
25 25 29 27 25 17 23 23 19 20 24 7 17 19 23 18 14 13 14 14 14 13 13 14 16 17 18 19 19 19 19 20 20 20 19 19 18 20 18 17 16 17 17 17
24 31 29 23 17 9 24 22 15 23 21 21 23 19 10 15 15 14 12 14 15 16 17 17 17 18 19 19 20 20 19 20 21 20 20 20 21 22 17 17 18 18 17 17
26 31 24 25 22 16 20 22 22 22 24 24 17 20 17 13 14 12 12 14 16 18 18 18 19 20 20 21 22 21 20 21 21 20 20 20 22 22 17 15 17 17 17 18
36 29 30 28 22 19 24 22 19 22 24 24 19 17 18 16 17 13 12 14 17 18 19 20 21 20 20 22 24 22 20 21 22 22 21 21 22 21 19 17 16 16 16 16
26 25 24 17 15 16 17 18 20 21 21 19 18 18 15 15 15 14 15 17 17 17 19 20 19 19 21 24 22 21 20 21 21 21 20 22 23 21 16 15 18 18 17 16
18 4 15 11 12 11 14 15 19 20 19 17 16 17 13 15 15 16 16 16 16 17 19 19 19 19 21 23 22 21 19 20 20 20 21 22 22 22 21 19 16 17 16 17
19 13 11 10 9 9 10 12 15 18 16 20 20 17 19 19 17 17 18 18 19 20 22 22 21 20 22 21 20 20 19 20 22 22 24 25 23 23 23 23 22 20 20 19
14 14 10 8 6 13 16 19 14 9 8 14 19 21 20 16 18 20 20 19 21 22 22 21 20 22 23 22 22 22 21 22 23 23 23 24 25 24 25 24 26 26 23 20
7 28 10 20 12 18 16 16 15 15 15 14 21 19 19 21 20 22 22 21 22 22 21 20 21 22 22 22 22 23 23 24 26 26 26 27 28 26 26 26 26 26 25 22
23 26 17 21 14 13 14 20 22 15 10 19 19 19 19 21 22 21 19 19 22 23 23 19 17 21 23 24 23 21 23 25 27 30 29 29 31 29 24 24 24 24 24 24
23 23 20 13 14 14 16 18 17 14 19 18 19 17 18 16 18 19 21 22 23 24 22 19 17 20 24 26 25 24 26 28 31 33 33 32 31 33 28 23 21 22 22 22
14 15 15 14 13 14 15 11 14 20 21 20 15 17 18 19 20 20 23 23 26 28 22 16 16 21 26 28 27 28 30 32 34 35 34 31 32 34 28 23 23 22 22 22
13 15 18 18 16 17 15 15 16 17 14 14 15 16 18 20 22 23 21 24 30 30 23 20 22 27 29 31 30 30 30 31 31 32 31 30 32 33 29 27 26 24 22 21
17 16 16 18 16 10 12 13 13 15 18 14 15 18 20 21 21 22 26 28 29 27 23 24 27 28 29 30 29 28 28 28 31 32 32 32 32 32 29 27 26 25 25 22
17 17 17 14 11 11 11 18 17 18 18 14 15 16 18 20 22 25 25 26 26 26 26 27 28 29 30 31 31 31 30 30 31 31 31 31 31 32 32 31 31 30 29 26
17 16 15 13 13 14 15 17 12 12 13 14 16 19 21 22 22 24 25 27 27 27 27 29 31 32 31 32 32 33 32 32 32 33 33 33 34 33 32 34 35 36 32 29
17 17 17 15 13 14 16 13 16 17 19 18 18 20 22 22 24 25 25 25 26 28 30 32 33 33 33 34 34 34 34 34 33 32 33 33 34 34 35 36 37 38 37 35
14 16 18 17 16 15 15 12 18 18 19 17 19 21 23 24 26 26 26 27 28 30 31 33 33 33 33 33 34 33 33 33 33 34 33 34 34 34 35 35 33 34 33 32
Wind_Direction
321 324 323 320 322 325 324 324 323 326 324 329 331 335 332 325 325 329 330 319 318 323 325 334 297 298 331 329 339 306 242 262 318 360 34 336 53 360 42 192 256 266 274 266
315 321 319 318 321 322 322 324 322 324 324 334 336 338 329 327 321 320 318 325 326 326 318 306 283 295 314 336 339 269 273 306 306 318 323 91 116 103 151 189 221 250 204 220
312 322 320 316 321 322 324 325 326 325 334 337 334 333 334 331 328 320 310 315 331 330 325 316 246 280 299 309 331 323 323 319 317 317 313 305 132 139 169 204 218 271 264 277
311 321 311 325 333 329 325 327 331 332 331 335 340 340 347 346 334 324 318 312 326 327 323 309 300 311 332 322 334 354 343 333 318 307 287 308 343 347 175 250 259 254 261 265
312 314 318 320 326 332 329 326 337 339 337 339 350 352 354 358 350 350 310 308 335 327 324 318 319 326 345 339 334 338 345 352 358 1 334 316 295 303 317 298 281 272 280 276
320 318 317 328 330 329 333 321 360 352 339 340 349 340 359 353 7 38 355 8 357 338 328 315 318 328 350 339 326 323 319 325 343 358 357 353 354 354 351 331 326 309 304 288
316 315 316 326 330 342 321 330 341 353 333 1 355 7 10 21 341 1 5 8 15 355 340 315 312 329 332 327 326 323 335 344 346 344 346 346 355 9 358 353 344 344 325 321
321 316 314 340 334 330 339 335 330 327 339 359 4 5 31 99 12 5 18 18 18 348 309 325 330 330 322 320 320 345 352 349 352 358 12 7 355 354 358 357 349 336 329 321
320 317 319 328 328 331 345 347 343 318 327 333 6 348 19 41 34 43 51 45 357 331 306 319 324 331 333 327 334 343 348 345 352 355 351 356 353 360 6 358 349 341 339 339
314 312 296 303 319 333 333 345 318 337 316 19 337 327 313 333 10 11 22 4 357 346 319 310 318 329 335 334 337 339 341 341 336 339 338 341 339 317 344 1 1 345 332 332
308 298 294 326 336 348 328 342 0 321 319 306 307 279 34 341 328 358 347 334 342 340 323 327 328 327 329 329 331 332 336 335 333 334 335 332 326 320 335 343 340 338 341 333
302 303 315 320 326 341 340 340 334 318 306 295 333 310 328 345 339 2 351 311 319 327 325 320 318 314 320 325 331 332 328 328 326 325 331 335 322 325 343 346 343 339 340 336
283 305 288 296 316 329 314 342 336 314 308 297 315 316 316 334 315 323 333 344 331 337 328 321 315 322 324 323 323 332 330 327 326 328 329 331 332 335 336 344 347 345 345 344
307 300 306 315 320 326 335 343 336 319 317 315 306 323 333 321 316 318 309 304 320 328 332 339 340 338 328 323 333 333 330 332 332 339 345 341 341 346 353 344 337 338 342 343
317 332 322 329 329 333 337 338 319 299 320 320 338 324 343 295 315 306 312 314 325 333 335 332 334 338 336 334 335 331 328 332 331 340 342 342 345 346 346 345 344 341 342 343
310 327 333 331 337 339 345 345 325 302 331 303 316 324 292 284 303 315 308 315 317 317 316 317 325 340 337 339 337 330 330 332 333 331 330 332 336 338 339 339 335 338 338 338
328 326 342 349 357 331 323 320 321 328 351 331 309 290 280 311 303 297 293 305 316 317 323 335 341 342 340 339 335 330 330 332 334 335 336 334 334 335 334 333 331 328 330 335
355 256 330 314 331 322 331 327 314 299 302 323 292 294 290 272 290 278 272 306 327 323 330 338 337 336 337 336 335 330 326 327 326 326 327 329 326 328 325 328 332 334 336 339
311 298 312 302 326 334 338 300 285 288 315 294 301 290 289 289 290 298 323 330 333 327 327 344 347 342 340 337 336 335 333 329 325 322 320 320 320 321 324 325 329 332 334 336
317 301 296 308 317 318 317 298 280 274 260 267 253 302 304 321 324 328 328 322 320 325 335 341 346 340 337 334 336 338 331 325 320 317 315 315 317 315 317 321 326 328 332 336
243 249 276 305 358 304 285 294 267 246 252 253 327 313 311 311 320 331 329 330 323 320 333 346 343 337 334 331 330 327 326 324 322 318 316 314 316 315 315 317 319 320 321 325
241 255 182 205 207 208 258 284 280 283 308 329 332 336 331 324 320 322 333 330 322 323 334 337 332 328 326 326 328 329 327 328 329 328 322 318 317 315 313 314 313 315 315 315
312 320 294 286 272 16 339 333 314 306 299 332 331 324 322 319 325 328 325 331 329 334 340 336 333 331 331 332 332 331 330 328 327 326 324 319 318 317 316 315 314 312 313 310
318 319 320 323 352 350 1 306 319 305 309 328 340 342 339 338 343 339 341 342 343 342 342 340 339 337 336 336 334 334 332 331 331 330 328 324 322 320 317 314 311 309 308 306
337 348 353 345 339 337 336 325 348 1 4 350 342 342 349 347 351 346 345 345 347 348 347 343 339 337 336 336 335 333 332 331 329 327 325 325 322 320 317 314 314 312 308 303
23 3 1 2 3 348 341 352 357 357 352 346 342 344 345 348 349 351 352 351 349 346 344 342 340 339 338 337 336 335 334 334 333 331 329 326 324 321 316 310 309 308 309 305
343 347 7 8 2 19 28 351 320 342 343 2 357 350 351 350 351 352 352 351 350 346 344 344 344 343 343 342 341 340 339 336 334 332 330 327 324 320 318 318 319 311 306 306